Other Public Products
Issued by NWS Charleston, SC

Current Version | Previous Version | Text Only | Print | Product List | Glossary Off
Versions: 1 2 3 4 5 6 7 8 9 10 11 12 13 14 15 16 17 18 19 20 21 22 23 24 25 26 27 28 29 30 31 32 33 34 35 36 37 38 39 40 41 42 43 44 45 46 47 48 49 50

000
FPUS82 KCHS 180112
OPUCHS

TEST...KCHS/KSAV Gateway Observations...TEST
National Weather Service Charleston SC
900 PM EDT TUE OCT 17 2017

NOTE: "fair" indicates few or no clouds below 12,000 feet with no
significant weather and/or obstructions to visibility.

SCZ050-WAZ558-NCZ071-TXZ119-213-PAZ071-DCZ001-FLZ074-172-MI076-
NYZ176-178-MAZ016-IL014-TNZ027-NJZ106-GAZ044-MD014-180200-

...Gateway Observations for Charleston International...

CITY           SKY/WX    TMP DP  RH WIND       PRES   REMARKS
Chas Airport   CLEAR     55  48  77 NE5       30.26R
Seattle        CLOUDY    56  41  57 SW9       30.12S
Charlotte      CLEAR     56  43  61 NE5       30.31R
Dallas DFW     PTCLDY    65  43  44 SE7       30.13S
Dallas Love    PTCLDY    68  40  35 SE6       30.14S
Philladelphia  CLEAR     54  38  54 S7        30.31R
Wash National  CLEAR     54  40  59 SE7       30.32R
Baltimore      CLEAR     48  41  76 CALM      30.31R
Miami          MOCLDY    83  73  72 NE6       30.00R
Detroit        PTCLDY    58  42  55 SW10      30.18R
Newark         CLEAR     53  41  63 S10       30.28R
Laguardia      CLEAR     56  41  57 SW7       30.28R
J F K          CLEAR     54  43  66 SW10      30.29S
Boston Logan   CLEAR     50  37  61 SW16      30.24R
Ft. Lauderdale CLOUDY    81  74  79 NE9       29.99R
Chicago O`Hare PTCLDY    62  41  46 S8        30.12R
Chicago Midway CLEAR     63  41  44 S12G22    30.14R
Houston Bush   CLEAR     65  49  56 N5        30.16R
Houston Hobby  CLEAR     67  47  48 CALM      30.15R
Nashville      MOCLDY    60  43  53 CALM      30.27S
Atlanta        PTCLDY    58  43  57 E8        30.26R

$$

GAZ044-118-TXZ119-213-NCZ071-DCZ001-MDZ014-506-PAZ021-071-NJZ106-
NYZ176-178-MAZ106-OHZ011-021-055-MIZ076-KYZ091-ILZ014-INZ047-
MNZ060-ONZ431-180200-

...Gateway Observations for Savannah International...

CITY           SKY/WX    TMP DP  RH WIND       PRES   REMARKS
Savannah Arpt  CLEAR     59  46  62 NE7       30.25R
Atlanta        PTCLDY    58  43  57 E8        30.26R
Charlotte      CLEAR     56  43  61 NE5       30.31R
Dallas DFW     PTCLDY    65  43  44 SE7       30.13S
Houston Bush   CLEAR     65  49  56 N5        30.16R
Wash National  CLEAR     54  40  59 SE7       30.32R
Wash Dulles    CLEAR     47  38  71 S3        30.31R
Baltimore      CLEAR     48  41  76 CALM      30.31R
Philadelphia   CLEAR     54  38  54 S7        30.31R
Newark         CLEAR     53  41  63 S10       30.28R
Laguardia      CLEAR     56  41  57 SW7       30.28R
J F K          CLEAR     54  43  66 SW10      30.29S
Boston         CLEAR     50  37  61 SW16      30.24R
Pittsburg      CLEAR     54  40  59 S5        30.26S
Akron          CLEAR     52  39  61 SW8       30.24S
Cleveland      PTCLDY    58  39  49 S9        30.24R
Cincinnati     PTCLDY    52  44  74 S6        30.27S
Columbus       CLEAR     51  40  66 S5        30.26S
Detroit        PTCLDY    58  42  55 SW10      30.18R
Chicago O`Hare PTCLDY    62  41  46 S8        30.12R
Minneapolis    PTCLDY    65  43  44 S7        29.92S
Indianapolis   CLEAR     55  40  56 S8        30.25R
Toronto Canada PTCLDY    57  45  62 W10       30.10R

$$




USA.gov is the U.S. government's official web portal to all federal, state and local government web resources and services.